Time,TemperatureF,DewpointF,PressureIn,WindDirection,WindDirectionDegrees,WindSpeedMPH,WindSpeedGustMPH,Humidity,HourlyPrecipIn,Conditions,Clouds,dailyrainin,SoftwareType,DateUTC
2013-03-25 00:03:00,26.8,16.9,30.18,SE,135,0.0,0.0,66,0.00,,,0.00,WUHU216HW,2013-03-25 07:03:00,
2013-03-25 00:08:00,26.8,16.9,30.17,SE,135,0.0,0.0,66,0.00,,,0.00,WUHU216HW,2013-03-25 07:08:00,
2013-03-25 00:13:00,26.6,16.7,30.18,SE,135,0.0,0.0,66,0.00,,,0.00,WUHU216HW,2013-03-25 07:13:00,
2013-03-25 00:18:00,26.6,16.7,30.18,SE,135,0.0,0.0,66,0.00,,,0.00,WUHU216HW,2013-03-25 07:18:00,
2013-03-25 00:23:00,26.5,16.6,30.17,SE,135,0.0,0.0,66,0.00,,,0.00,WUHU216HW,2013-03-25 07:23:00,
2013-03-25 00:29:00,26.3,16.7,30.17,SE,135,0.0,0.0,67,0.00,,,0.00,WUHU216HW,2013-03-25 07:29:00,
2013-03-25 00:34:00,26.3,16.4,30.17,SE,135,0.0,0.0,66,0.00,,,0.00,WUHU216HW,2013-03-25 07:34:00,
2013-03-25 00:39:00,26.3,16.7,30.17,SE,135,0.0,0.0,67,0.00,,,0.00,WUHU216HW,2013-03-25 07:39:00,
2013-03-25 00:44:00,26.1,16.6,30.17,SE,135,0.0,0.4,67,0.00,,,0.00,WUHU216HW,2013-03-25 07:44:00,
2013-03-25 00:49:00,25.9,16.4,30.17,SE,135,0.0,0.4,67,0.00,,,0.00,WUHU216HW,2013-03-25 07:49:00,
2013-03-25 00:54:00,25.7,16.2,30.17,SE,135,0.0,0.0,67,0.00,,,0.00,WUHU216HW,2013-03-25 07:54:00,
2013-03-25 00:59:00,25.6,16.4,30.17,SE,135,0.0,0.0,68,0.00,,,0.00,WUHU216HW,2013-03-25 07:59:00,
2013-03-25 01:04:00,25.6,16.4,30.17,SE,135,0.0,0.4,68,0.00,,,0.00,WUHU216HW,2013-03-25 08:04:00,
2013-03-25 01:10:00,25.4,16.2,30.17,SSE,158,0.0,0.4,68,0.00,,,0.00,WUHU216HW,2013-03-25 08:10:00,
2013-03-25 01:15:00,25.4,16.6,30.17,SSE,158,0.0,0.9,69,0.00,,,0.00,WUHU216HW,2013-03-25 08:15:00,
2013-03-25 01:20:00,25.4,16.6,30.17,SSE,158,0.0,0.9,69,0.00,,,0.00,WUHU216HW,2013-03-25 08:20:00,
2013-03-25 01:25:00,25.2,16.4,30.17,SSE,158,0.0,0.4,69,0.00,,,0.00,WUHU216HW,2013-03-25 08:25:00,
2013-03-25 01:30:00,25.2,16.4,30.17,SSE,158,0.0,0.0,69,0.00,,,0.00,WUHU216HW,2013-03-25 08:30:00,
2013-03-25 01:35:00,25.2,16.4,30.17,SSE,158,0.0,0.0,69,0.00,,,0.00,WUHU216HW,2013-03-25 08:35:00,
2013-03-25 01:40:00,25.2,16.7,30.17,SSE,158,0.0,0.0,70,0.00,,,0.00,WUHU216HW,2013-03-25 08:40:00,
2013-03-25 01:45:00,25.2,16.7,30.17,SSE,158,0.0,0.0,70,0.00,,,0.00,WUHU216HW,2013-03-25 08:45:00,
2013-03-25 01:50:00,25.0,16.6,30.17,SSE,158,0.0,0.7,70,0.00,,,0.00,WUHU216HW,2013-03-25 08:50:00,
2013-03-25 01:56:00,25.0,16.6,30.17,SSE,158,0.0,0.7,70,0.00,,,0.00,WUHU216HW,2013-03-25 08:56:00,
2013-03-25 02:01:00,24.8,16.4,30.17,SSE,158,0.0,0.0,70,0.00,,,0.00,WUHU216HW,2013-03-25 09:01:00,
2013-03-25 02:06:00,24.8,16.4,30.17,SSE,158,0.0,0.0,70,0.00,,,0.00,WUHU216HW,2013-03-25 09:06:00,
2013-03-25 02:11:00,24.8,16.0,30.17,SSE,158,0.0,0.0,69,0.00,,,0.00,WUHU216HW,2013-03-25 09:11:00,
2013-03-25 02:16:00,24.8,16.0,30.17,SSE,158,0.0,0.0,69,0.00,,,0.00,WUHU216HW,2013-03-25 09:16:00,
2013-03-25 02:21:00,24.7,16.2,30.17,SSE,158,0.0,0.4,70,0.00,,,0.00,WUHU216HW,2013-03-25 09:21:00,
2013-03-25 02:26:00,24.7,16.2,30.17,SSE,158,0.0,0.4,70,0.00,,,0.00,WUHU216HW,2013-03-25 09:26:00,
2013-03-25 02:32:00,24.7,16.2,30.17,SSE,158,0.0,0.0,70,0.00,,,0.00,WUHU216HW,2013-03-25 09:32:00,
2013-03-25 02:37:00,24.7,16.6,30.17,SSE,158,0.0,0.0,71,0.00,,,0.00,WUHU216HW,2013-03-25 09:37:00,
2013-03-25 02:42:00,24.7,16.6,30.17,SSE,158,0.0,0.0,71,0.00,,,0.00,WUHU216HW,2013-03-25 09:42:00,
2013-03-25 02:47:00,24.7,16.6,30.17,SSE,158,0.0,0.0,71,0.00,,,0.00,WUHU216HW,2013-03-25 09:47:00,
2013-03-25 02:52:00,24.5,16.4,30.16,SSE,158,0.0,0.0,71,0.00,,,0.00,WUHU216HW,2013-03-25 09:52:00,
2013-03-25 02:57:00,24.5,16.4,30.16,SSE,158,0.0,0.0,71,0.00,,,0.00,WUHU216HW,2013-03-25 09:57:00,
2013-03-25 03:02:00,24.5,16.8,30.16,SE,135,0.4,1.1,72,0.00,,,0.00,WUHU216HW,2013-03-25 10:02:00,
2013-03-25 03:05:00,24.7,17.2,30.16,SE,135,0.7,1.3,73,0.00,,,0.00,WUHU216HW,2013-03-25 10:05:00,
2013-03-25 03:35:00,26.6,18.8,30.16,NE,45,0.0,0.0,72,0.00,,,0.00,WUHU216HW,2013-03-25 10:35:00,
2013-03-25 03:40:00,26.6,18.8,30.16,NE,45,0.0,0.0,72,0.00,,,0.00,WUHU216HW,2013-03-25 10:40:00,
2013-03-25 03:45:00,26.5,18.3,30.16,NE,45,0.0,0.0,71,0.00,,,0.00,WUHU216HW,2013-03-25 10:45:00,
2013-03-25 03:51:00,26.3,18.1,30.16,NE,45,0.2,0.4,71,0.00,,,0.00,WUHU216HW,2013-03-25 10:51:00,
2013-03-25 03:56:00,26.3,18.1,30.16,NE,45,0.0,0.4,71,0.00,,,0.00,WUHU216HW,2013-03-25 10:56:00,
2013-03-25 04:01:00,26.1,17.9,30.16,NE,45,0.0,0.0,71,0.00,,,0.00,WUHU216HW,2013-03-25 11:01:00,
2013-03-25 04:06:00,25.9,17.7,30.16,NE,45,0.0,0.0,71,0.00,,,0.00,WUHU216HW,2013-03-25 11:06:00,
2013-03-25 04:11:00,25.6,17.5,30.16,NE,45,0.0,0.0,71,0.00,,,0.00,WUHU216HW,2013-03-25 11:11:00,
2013-03-25 04:16:00,25.4,17.6,30.16,NE,45,0.0,0.0,72,0.00,,,0.00,WUHU216HW,2013-03-25 11:16:00,
2013-03-25 04:21:00,25.2,17.4,30.16,NE,45,0.0,0.0,72,0.00,,,0.00,WUHU216HW,2013-03-25 11:21:00,
2013-03-25 04:27:00,25.0,17.2,30.16,NE,45,0.0,0.0,72,0.00,,,0.00,WUHU216HW,2013-03-25 11:27:00,
2013-03-25 04:32:00,24.8,17.0,30.16,NE,45,0.0,0.4,72,0.00,,,0.00,WUHU216HW,2013-03-25 11:32:00,
2013-03-25 04:37:00,24.8,17.0,30.16,NE,45,0.0,0.4,72,0.00,,,0.00,WUHU216HW,2013-03-25 11:37:00,
2013-03-25 04:42:00,24.8,17.0,30.16,NE,45,0.0,0.0,72,0.00,,,0.00,WUHU216HW,2013-03-25 11:42:00,
2013-03-25 04:47:00,24.8,17.0,30.15,NE,45,0.0,0.0,72,0.00,,,0.00,WUHU216HW,2013-03-25 11:47:00,
2013-03-25 04:52:00,24.8,17.0,30.16,NE,45,0.0,0.0,72,0.00,,,0.00,WUHU216HW,2013-03-25 11:52:00,
2013-03-25 04:57:00,24.8,17.0,30.15,NE,45,0.0,0.0,72,0.00,,,0.00,WUHU216HW,2013-03-25 11:57:00,
2013-03-25 05:02:00,24.7,16.8,30.15,NE,45,0.0,0.0,72,0.00,,,0.00,WUHU216HW,2013-03-25 12:02:00,
2013-03-25 05:08:00,24.7,16.8,30.15,NE,45,0.0,0.0,72,0.00,,,0.00,WUHU216HW,2013-03-25 12:08:00,
2013-03-25 05:13:00,24.7,17.2,30.15,NE,45,0.0,0.0,73,0.00,,,0.00,WUHU216HW,2013-03-25 12:13:00,
2013-03-25 05:18:00,24.8,17.4,30.15,NE,45,0.0,0.0,73,0.00,,,0.00,WUHU216HW,2013-03-25 12:18:00,
2013-03-25 05:23:00,24.8,17.4,30.15,NE,45,0.0,0.0,73,0.00,,,0.00,WUHU216HW,2013-03-25 12:23:00,
2013-03-25 05:28:00,24.8,17.4,30.15,NE,45,0.0,0.0,73,0.00,,,0.00,WUHU216HW,2013-03-25 12:28:00,
2013-03-25 05:33:00,24.8,17.4,30.15,NE,45,0.0,0.0,73,0.00,,,0.00,WUHU216HW,2013-03-25 12:33:00,
2013-03-25 05:38:00,24.8,17.4,30.15,NE,45,0.0,0.0,73,0.00,,,0.00,WUHU216HW,2013-03-25 12:38:00,
2013-03-25 05:43:00,24.8,17.4,30.15,NE,45,0.0,0.7,73,0.00,,,0.00,WUHU216HW,2013-03-25 12:43:00,
2013-03-25 05:48:00,24.8,17.4,30.15,NE,45,0.0,0.7,73,0.00,,,0.00,WUHU216HW,2013-03-25 12:48:00,
2013-03-25 05:54:00,24.8,17.4,30.15,NE,45,0.0,0.4,73,0.00,,,0.00,WUHU216HW,2013-03-25 12:54:00,
2013-03-25 05:59:00,24.8,17.4,30.15,NE,45,0.0,0.0,73,0.00,,,0.00,WUHU216HW,2013-03-25 12:59:00,
2013-03-25 06:04:00,24.8,17.4,30.15,NE,45,0.0,0.0,73,0.00,,,0.00,WUHU216HW,2013-03-25 13:04:00,
2013-03-25 06:09:00,24.8,17.4,30.15,NE,45,0.0,0.0,73,0.00,,,0.00,WUHU216HW,2013-03-25 13:09:00,
2013-03-25 06:14:00,24.8,17.4,30.15,NE,45,0.0,0.0,73,0.00,,,0.00,WUHU216HW,2013-03-25 13:14:00,
2013-03-25 06:19:00,24.8,17.4,30.15,NE,45,0.0,0.0,73,0.00,,,0.00,WUHU216HW,2013-03-25 13:19:00,
2013-03-25 06:24:00,24.8,17.4,30.15,NE,45,0.0,0.0,73,0.00,,,0.00,WUHU216HW,2013-03-25 13:24:00,
2013-03-25 06:30:00,24.7,17.2,30.15,NE,45,0.0,0.0,73,0.00,,,0.00,WUHU216HW,2013-03-25 13:30:00,
2013-03-25 06:35:00,24.7,17.6,30.15,NE,45,0.0,0.0,74,0.00,,,0.00,WUHU216HW,2013-03-25 13:35:00,
2013-03-25 06:40:00,24.7,17.6,30.15,NE,45,0.0,0.0,74,0.00,,,0.00,WUHU216HW,2013-03-25 13:40:00,
2013-03-25 06:45:00,24.5,17.4,30.15,NE,45,0.4,0.7,74,0.00,,,0.00,WUHU216HW,2013-03-25 13:45:00,
2013-03-25 06:50:00,24.7,17.6,30.15,NE,45,0.0,1.1,74,0.00,,,0.00,WUHU216HW,2013-03-25 13:50:00,
2013-03-25 06:55:00,24.8,18.0,30.15,NE,45,0.0,1.1,75,0.00,,,0.00,WUHU216HW,2013-03-25 13:55:00,
2013-03-25 07:00:00,25.0,18.2,30.15,NE,45,0.0,0.4,75,0.00,,,0.00,WUHU216HW,2013-03-25 14:00:00,
2013-03-25 07:05:00,25.0,18.2,30.15,NE,45,0.4,0.4,75,0.00,,,0.00,WUHU216HW,2013-03-25 14:05:00,
2013-03-25 07:11:00,25.0,18.2,30.15,NE,45,0.0,0.4,75,0.00,,,0.00,WUHU216HW,2013-03-25 14:11:00,
2013-03-25 07:16:00,25.0,18.2,30.16,NE,45,0.0,0.4,75,0.00,,,0.00,WUHU216HW,2013-03-25 14:16:00,
2013-03-25 07:21:00,25.0,17.8,30.15,NE,45,0.0,0.0,74,0.00,,,0.00,WUHU216HW,2013-03-25 14:21:00,
2013-03-25 07:26:00,25.2,18.4,30.15,NE,45,0.9,1.1,75,0.00,,,0.00,WUHU216HW,2013-03-25 14:26:00,
2013-03-25 07:31:00,25.4,18.6,30.15,NE,45,0.4,1.1,75,0.00,,,0.00,WUHU216HW,2013-03-25 14:31:00,
2013-03-25 07:36:00,25.6,18.7,30.15,NE,45,0.4,1.1,75,0.00,,,0.00,WUHU216HW,2013-03-25 14:36:00,
2013-03-25 07:41:00,25.7,18.8,30.15,NE,45,0.0,0.9,75,0.00,,,0.00,WUHU216HW,2013-03-25 14:41:00,
2013-03-25 07:46:00,25.9,19.0,30.15,NE,45,0.0,2.7,75,0.00,,,0.00,WUHU216HW,2013-03-25 14:46:00,
2013-03-25 07:52:00,26.3,19.4,30.15,NE,45,0.0,2.7,75,0.00,,,0.00,WUHU216HW,2013-03-25 14:52:00,
2013-03-25 07:57:00,26.6,19.7,30.15,NNE,23,3.4,3.4,75,0.00,,,0.00,WUHU216HW,2013-03-25 14:57:00,
2013-03-25 08:02:00,27.0,20.1,30.15,NE,45,0.4,3.4,75,0.00,,,0.00,WUHU216HW,2013-03-25 15:02:00,
2013-03-25 08:07:00,27.7,20.8,30.15,NNE,23,2.0,4.3,75,0.00,,,0.00,WUHU216HW,2013-03-25 15:07:00,
2013-03-25 08:12:00,28.4,21.5,30.15,North,0,2.2,4.3,75,0.00,,,0.00,WUHU216HW,2013-03-25 15:12:00,
2013-03-25 08:17:00,29.0,21.7,30.15,North,0,0.4,3.4,74,0.00,,,0.00,WUHU216HW,2013-03-25 15:17:00,
2013-03-25 08:22:00,29.3,21.8,30.15,North,0,1.1,3.1,73,0.00,,,0.00,WUHU216HW,2013-03-25 15:22:00,
2013-03-25 08:28:00,30.1,22.4,30.15,ENE,68,1.6,5.1,73,0.00,,,0.00,WUHU216HW,2013-03-25 15:28:00,
2013-03-25 08:33:00,31.0,23.0,30.15,NE,45,2.5,4.7,72,0.00,,,0.00,WUHU216HW,2013-03-25 15:33:00,
2013-03-25 08:38:00,31.5,23.2,30.15,NE,45,3.4,4.7,71,0.00,,,0.00,WUHU216HW,2013-03-25 15:38:00,
2013-03-25 08:43:00,31.9,23.2,30.15,ENE,68,2.7,4.7,70,0.00,,,0.00,WUHU216HW,2013-03-25 15:43:00,
2013-03-25 08:48:00,32.0,23.4,30.15,NNE,23,4.0,6.7,70,0.00,,,0.00,WUHU216HW,2013-03-25 15:48:00,
2013-03-25 08:53:00,32.8,24.0,30.15,NE,45,3.4,8.5,70,0.00,,,0.00,WUHU216HW,2013-03-25 15:53:00,
2013-03-25 08:58:00,33.5,23.9,30.15,NNE,23,8.7,11.9,68,0.00,,,0.00,WUHU216HW,2013-03-25 15:58:00,
2013-03-25 09:04:00,34.0,24.1,30.14,NE,45,4.7,11.9,67,0.00,,,0.00,WUHU216HW,2013-03-25 16:04:00,
2013-03-25 09:09:00,34.7,24.8,30.14,ENE,68,1.8,12.8,67,0.00,,,0.00,WUHU216HW,2013-03-25 16:09:00,
2013-03-25 09:14:00,35.5,25.2,30.14,NNE,23,1.1,12.8,66,0.00,,,0.00,WUHU216HW,2013-03-25 16:14:00,
2013-03-25 09:19:00,36.0,25.4,30.14,ENE,68,4.7,7.8,65,0.00,,,0.00,WUHU216HW,2013-03-25 16:19:00,
2013-03-25 09:24:00,36.4,25.4,30.14,North,0,2.2,7.8,64,0.00,,,0.00,WUHU216HW,2013-03-25 16:24:00,
2013-03-25 09:29:00,36.7,24.9,30.14,NE,45,6.3,10.1,62,0.00,,,0.00,WUHU216HW,2013-03-25 16:29:00,
2013-03-25 09:34:00,37.1,24.9,30.15,ESE,113,2.2,10.1,61,0.00,,,0.00,WUHU216HW,2013-03-25 16:34:00,
2013-03-25 09:39:00,37.8,25.2,30.14,ENE,68,0.9,6.9,60,0.00,,,0.00,WUHU216HW,2013-03-25 16:39:00,
2013-03-25 09:44:00,38.2,25.8,30.14,NNE,23,5.8,6.9,61,0.00,,,0.00,WUHU216HW,2013-03-25 16:44:00,
2013-03-25 09:50:00,38.9,25.3,30.14,WNW,293,3.4,6.0,58,0.00,,,0.00,WUHU216HW,2013-03-25 16:50:00,
2013-03-25 09:55:00,39.2,25.2,30.14,NE,45,4.3,5.8,57,0.00,,,0.00,WUHU216HW,2013-03-25 16:55:00,
2013-03-25 10:00:00,39.2,25.2,30.14,NNE,23,3.8,8.5,57,0.00,,,0.00,WUHU216HW,2013-03-25 17:00:00,
2013-03-25 10:05:00,39.1,25.0,30.14,North,0,2.7,8.5,57,0.00,,,0.00,WUHU216HW,2013-03-25 17:05:00,
2013-03-25 10:10:00,39.2,25.2,30.14,ENE,68,5.6,6.3,57,0.00,,,0.00,WUHU216HW,2013-03-25 17:10:00,
2013-03-25 10:15:00,39.4,24.5,30.14,NE,45,1.6,7.6,55,0.00,,,0.00,WUHU216HW,2013-03-25 17:15:00,
2013-03-25 10:20:00,40.0,25.4,30.14,NNE,23,2.5,7.6,56,0.00,,,0.00,WUHU216HW,2013-03-25 17:20:00,
2013-03-25 10:26:00,40.7,25.2,30.14,ENE,68,1.8,6.9,54,0.00,,,0.00,WUHU216HW,2013-03-25 17:26:00,
2013-03-25 10:31:00,41.0,25.1,30.14,NNE,23,3.8,9.2,53,0.00,,,0.00,WUHU216HW,2013-03-25 17:31:00,
2013-03-25 10:36:00,40.9,24.5,30.14,NNE,23,0.9,9.2,52,0.00,,,0.00,WUHU216HW,2013-03-25 17:36:00,
2013-03-25 10:41:00,41.0,24.7,30.13,NNE,23,5.1,8.9,52,0.00,,,0.00,WUHU216HW,2013-03-25 17:41:00,
2013-03-25 10:46:00,41.2,24.9,30.13,East,90,2.5,7.6,52,0.00,,,0.00,WUHU216HW,2013-03-25 17:46:00,
2013-03-25 10:51:00,41.4,25.0,30.13,ENE,68,2.2,7.8,52,0.00,,,0.00,WUHU216HW,2013-03-25 17:51:00,
2013-03-25 10:56:00,41.8,24.9,30.14,NNE,23,6.9,8.5,51,0.00,,,0.00,WUHU216HW,2013-03-25 17:56:00,
2013-03-25 11:01:00,41.8,24.9,30.14,NNE,23,2.9,8.5,51,0.00,,,0.00,WUHU216HW,2013-03-25 18:01:00,
2013-03-25 11:07:00,42.1,25.8,30.14,NNE,23,3.4,4.3,52,0.00,,,0.00,WUHU216HW,2013-03-25 18:07:00,
2013-03-25 11:12:00,42.5,26.1,30.13,ENE,68,0.9,4.7,52,0.00,,,0.00,WUHU216HW,2013-03-25 18:12:00,
2013-03-25 11:17:00,42.7,24.8,30.13,ESE,113,1.6,5.4,49,0.00,,,0.00,WUHU216HW,2013-03-25 18:17:00,
2013-03-25 11:22:00,42.7,24.8,30.13,NNE,23,2.2,8.7,49,0.00,,,0.00,WUHU216HW,2013-03-25 18:22:00,
2013-03-25 11:27:00,42.8,26.0,30.13,NNE,23,0.2,8.7,51,0.00,,,0.00,WUHU216HW,2013-03-25 18:27:00,
2013-03-25 11:32:00,43.4,26.0,30.13,NNE,23,5.8,6.3,50,0.00,,,0.00,WUHU216HW,2013-03-25 18:32:00,
2013-03-25 11:37:00,43.6,26.2,30.13,ENE,68,0.9,6.3,50,0.00,,,0.00,WUHU216HW,2013-03-25 18:37:00,
2013-03-25 11:42:00,43.9,26.6,30.12,ESE,113,0.2,4.3,50,0.00,,,0.00,WUHU216HW,2013-03-25 18:42:00,
2013-03-25 11:48:00,44.1,26.7,30.12,ENE,68,1.8,5.4,50,0.00,,,0.00,WUHU216HW,2013-03-25 18:48:00,
2013-03-25 11:53:00,44.5,26.5,30.12,ENE,68,0.2,5.4,49,0.00,,,0.00,WUHU216HW,2013-03-25 18:53:00,
2013-03-25 11:58:00,44.8,26.8,30.12,East,90,2.5,3.6,49,0.00,,,0.00,WUHU216HW,2013-03-25 18:58:00,
2013-03-25 12:03:00,45.0,26.5,30.12,NE,45,0.7,6.3,48,0.00,,,0.00,WUHU216HW,2013-03-25 19:03:00,
2013-03-25 12:08:00,45.0,26.5,30.12,NNE,23,2.2,6.5,48,0.00,,,0.00,WUHU216HW,2013-03-25 19:08:00,
2013-03-25 12:13:00,45.2,26.0,30.11,North,0,1.3,6.5,47,0.00,,,0.00,WUHU216HW,2013-03-25 19:13:00,
2013-03-25 12:18:00,45.5,25.8,30.11,NE,45,5.6,6.0,46,0.00,,,0.00,WUHU216HW,2013-03-25 19:18:00,
2013-03-25 12:24:00,45.7,26.6,30.11,NE,45,1.8,5.6,47,0.00,,,0.00,WUHU216HW,2013-03-25 19:24:00,
2013-03-25 12:29:00,45.9,26.7,30.11,ENE,68,0.4,5.1,47,0.00,,,0.00,WUHU216HW,2013-03-25 19:29:00,
2013-03-25 12:34:00,46.3,27.0,30.11,NNW,338,5.1,5.4,47,0.00,,,0.00,WUHU216HW,2013-03-25 19:34:00,
2013-03-25 12:39:00,46.4,26.6,30.10,NNE,23,5.4,8.3,46,0.00,,,0.00,WUHU216HW,2013-03-25 19:39:00,
2013-03-25 12:44:00,46.4,26.1,30.10,North,0,1.1,8.3,45,0.00,,,0.00,WUHU216HW,2013-03-25 19:44:00,
2013-03-25 12:49:00,46.8,27.6,30.10,NNE,23,2.7,4.5,47,0.00,,,0.00,WUHU216HW,2013-03-25 19:49:00,
2013-03-25 12:54:00,47.2,27.3,30.10,ESE,113,1.1,9.8,46,0.00,,,0.00,WUHU216HW,2013-03-25 19:54:00,
2013-03-25 12:59:00,47.3,27.5,30.10,NNW,338,1.1,9.8,46,0.00,,,0.00,WUHU216HW,2013-03-25 19:59:00,
2013-03-25 13:05:00,47.9,27.4,30.09,NW,315,2.9,5.4,45,0.00,,,0.00,WUHU216HW,2013-03-25 20:05:00,
2013-03-25 13:10:00,48.2,28.3,30.09,NNE,23,0.2,4.0,46,0.00,,,0.00,WUHU216HW,2013-03-25 20:10:00,
2013-03-25 13:15:00,48.6,28.1,30.09,NNE,23,1.8,3.6,45,0.00,,,0.00,WUHU216HW,2013-03-25 20:15:00,
2013-03-25 13:20:00,48.6,27.6,30.08,NNW,338,1.3,3.4,44,0.00,,,0.00,WUHU216HW,2013-03-25 20:20:00,
2013-03-25 13:25:00,49.3,28.2,30.08,NNE,23,5.8,11.4,44,0.00,,,0.00,WUHU216HW,2013-03-25 20:25:00,
2013-03-25 13:30:00,49.3,27.6,30.08,NNE,23,5.6,11.4,43,0.00,,,0.00,WUHU216HW,2013-03-25 20:30:00,
2013-03-25 13:35:00,49.3,27.6,30.08,NNW,338,4.9,10.5,43,0.00,,,0.00,WUHU216HW,2013-03-25 20:35:00,
2013-03-25 13:40:00,49.3,27.1,30.08,NNE,23,3.4,10.5,42,0.00,,,0.00,WUHU216HW,2013-03-25 20:40:00,
2013-03-25 13:46:00,49.3,26.6,30.07,NNE,23,5.1,7.6,41,0.00,,,0.00,WUHU216HW,2013-03-25 20:46:00,
2013-03-25 13:51:00,49.7,28.0,30.07,NE,45,3.8,6.5,43,0.00,,,0.00,WUHU216HW,2013-03-25 20:51:00,
2013-03-25 13:56:00,50.2,27.9,30.07,NNE,23,2.0,6.3,42,0.00,,,0.00,WUHU216HW,2013-03-25 20:56:00,
2013-03-25 14:01:00,50.4,28.1,30.07,North,0,1.8,7.4,42,0.00,,,0.00,WUHU216HW,2013-03-25 21:01:00,
2013-03-25 14:06:00,50.8,29.0,30.06,North,0,5.4,9.2,43,0.00,,,0.00,WUHU216HW,2013-03-25 21:06:00,
2013-03-25 14:11:00,50.8,28.5,30.06,North,0,1.1,9.2,42,0.00,,,0.00,WUHU216HW,2013-03-25 21:11:00,
2013-03-25 14:16:00,50.9,28.5,30.06,NNE,23,0.7,6.3,42,0.00,,,0.00,WUHU216HW,2013-03-25 21:16:00,
2013-03-25 14:21:00,51.7,28.6,30.06,East,90,0.9,5.1,41,0.00,,,0.00,WUHU216HW,2013-03-25 21:21:00,
2013-03-25 14:27:00,51.7,29.3,30.06,NNE,23,2.9,5.1,42,0.00,,,0.00,WUHU216HW,2013-03-25 21:27:00,
2013-03-25 14:32:00,52.0,29.5,30.05,NW,315,0.4,6.0,42,0.00,,,0.00,WUHU216HW,2013-03-25 21:32:00,
2013-03-25 14:37:00,52.2,29.7,30.05,ESE,113,1.1,6.0,42,0.00,,,0.00,WUHU216HW,2013-03-25 21:37:00,
2013-03-25 14:42:00,52.7,30.8,30.04,SW,225,0.4,4.0,43,0.00,,,0.00,WUHU216HW,2013-03-25 21:42:00,
2013-03-25 14:47:00,53.3,31.2,30.05,WSW,248,4.7,5.1,43,0.00,,,0.00,WUHU216HW,2013-03-25 21:47:00,
2013-03-25 14:52:00,53.6,30.4,30.04,WSW,248,2.5,5.1,41,0.00,,,0.00,WUHU216HW,2013-03-25 21:52:00,
2013-03-25 14:57:00,53.5,30.2,30.04,SSE,158,2.2,2.9,41,0.00,,,0.00,WUHU216HW,2013-03-25 21:57:00,
2013-03-25 15:03:00,52.9,29.8,30.04,WSW,248,1.3,2.5,41,0.00,,,0.00,WUHU216HW,2013-03-25 22:03:00,
2013-03-25 15:08:00,52.9,29.8,30.04,SSE,158,1.1,2.7,41,0.00,,,0.00,WUHU216HW,2013-03-25 22:08:00,
2013-03-25 15:13:00,52.9,29.8,30.04,SE,135,1.6,2.7,41,0.00,,,0.00,WUHU216HW,2013-03-25 22:13:00,
2013-03-25 15:18:00,52.9,29.8,30.04,SSE,158,0.0,1.8,41,0.00,,,0.00,WUHU216HW,2013-03-25 22:18:00,
2013-03-25 15:23:00,52.7,29.6,30.04,WNW,293,0.9,2.7,41,0.00,,,0.00,WUHU216HW,2013-03-25 22:23:00,
2013-03-25 15:28:00,52.7,29.6,30.04,WSW,248,1.1,2.7,41,0.00,,,0.00,WUHU216HW,2013-03-25 22:28:00,
2013-03-25 15:33:00,52.7,29.6,30.04,WSW,248,0.4,2.5,41,0.00,,,0.00,WUHU216HW,2013-03-25 22:33:00,
2013-03-25 15:39:00,52.4,28.7,30.03,NE,45,1.8,3.8,40,0.00,,,0.00,WUHU216HW,2013-03-25 22:39:00,
2013-03-25 15:44:00,52.4,28.7,30.03,North,0,0.9,3.8,40,0.00,,,0.00,WUHU216HW,2013-03-25 22:44:00,
2013-03-25 15:49:00,52.4,28.1,30.03,NNE,23,6.3,10.5,39,0.00,,,0.00,WUHU216HW,2013-03-25 22:49:00,
2013-03-25 15:54:00,52.2,27.9,30.03,NNE,23,8.5,10.5,39,0.00,,,0.00,WUHU216HW,2013-03-25 22:54:00,
2013-03-25 15:59:00,52.0,27.7,30.03,North,0,0.4,8.5,39,0.00,,,0.00,WUHU216HW,2013-03-25 22:59:00,
2013-03-25 16:04:00,52.2,28.6,30.03,NNE,23,3.6,7.6,40,0.00,,,0.00,WUHU216HW,2013-03-25 23:04:00,
2013-03-25 16:09:00,52.6,29.4,30.03,NNE,23,0.7,6.7,41,0.00,,,0.00,WUHU216HW,2013-03-25 23:09:00,
2013-03-25 16:14:00,52.7,29.1,30.03,WSW,248,3.4,4.7,40,0.00,,,0.00,WUHU216HW,2013-03-25 23:14:00,
2013-03-25 16:20:00,52.9,29.8,30.03,WSW,248,1.1,5.1,41,0.00,,,0.00,WUHU216HW,2013-03-25 23:20:00,
2013-03-25 16:25:00,53.1,30.5,30.02,WNW,293,2.2,5.1,42,0.00,,,0.00,WUHU216HW,2013-03-25 23:25:00,
2013-03-25 16:30:00,53.1,30.0,30.02,WSW,248,1.6,3.4,41,0.00,,,0.00,WUHU216HW,2013-03-25 23:30:00,
2013-03-25 16:35:00,53.1,30.0,30.02,West,270,1.6,6.7,41,0.00,,,0.00,WUHU216HW,2013-03-25 23:35:00,
2013-03-25 16:40:00,53.3,30.7,30.02,SE,135,2.0,6.7,42,0.00,,,0.00,WUHU216HW,2013-03-25 23:40:00,
2013-03-25 16:45:00,53.3,30.7,30.02,SSE,158,0.4,4.3,42,0.00,,,0.00,WUHU216HW,2013-03-25 23:45:00,
2013-03-25 16:50:00,53.3,30.2,30.02,NNE,23,1.1,5.8,41,0.00,,,0.00,WUHU216HW,2013-03-25 23:50:00,
2013-03-25 16:55:00,52.7,29.6,30.02,ENE,68,0.4,5.8,41,0.00,,,0.00,WUHU216HW,2013-03-25 23:55:00,
2013-03-25 17:00:00,52.7,30.2,30.01,East,90,0.0,3.8,42,0.00,,,0.00,WUHU216HW,2013-03-26 00:00:00,
2013-03-25 17:29:00,52.2,29.7,30.00,ENE,68,2.0,2.0,42,0.00,,,0.00,WUHU216HW,2013-03-26 00:29:00,
2013-03-25 17:34:00,52.0,30.1,30.00,ENE,68,0.9,2.7,43,0.00,,,0.00,WUHU216HW,2013-03-26 00:34:00,
2013-03-25 17:39:00,51.8,30.0,30.00,NW,315,0.7,3.1,43,0.00,,,0.00,WUHU216HW,2013-03-26 00:39:00,
2013-03-25 17:44:00,51.5,29.6,30.00,ENE,68,0.7,3.4,43,0.00,,,0.00,WUHU216HW,2013-03-26 00:44:00,
2013-03-25 17:49:00,51.7,29.3,30.00,NNE,23,1.3,3.4,42,0.00,,,0.00,WUHU216HW,2013-03-26 00:49:00,
2013-03-25 17:54:00,51.5,29.1,30.00,North,0,1.3,2.9,42,0.00,,,0.00,WUHU216HW,2013-03-26 00:54:00,
2013-03-25 17:59:00,51.5,29.6,30.00,West,270,1.6,2.9,43,0.00,,,0.00,WUHU216HW,2013-03-26 00:59:00,
2013-03-25 18:04:00,51.5,29.6,30.00,NW,315,0.9,2.9,43,0.00,,,0.00,WUHU216HW,2013-03-26 01:04:00,
2013-03-25 18:09:00,51.5,29.6,30.00,WSW,248,0.7,4.3,43,0.00,,,0.00,WUHU216HW,2013-03-26 01:09:00,
2013-03-25 18:14:00,51.5,29.6,30.00,East,90,0.0,4.3,43,0.00,,,0.00,WUHU216HW,2013-03-26 01:14:00,
2013-03-25 18:19:00,51.3,29.4,30.00,East,90,0.9,2.7,43,0.00,,,0.00,WUHU216HW,2013-03-26 01:19:00,
2013-03-25 18:24:00,51.1,29.3,30.00,East,90,0.0,0.9,43,0.00,,,0.00,WUHU216HW,2013-03-26 01:24:00,
2013-03-25 18:29:00,51.1,29.9,30.00,NNE,23,0.4,1.1,44,0.00,,,0.00,WUHU216HW,2013-03-26 01:29:00,
2013-03-25 18:34:00,50.9,29.7,30.00,NNE,23,0.0,1.1,44,0.00,,,0.00,WUHU216HW,2013-03-26 01:34:00,
2013-03-25 18:39:00,50.8,29.5,29.99,NNE,23,0.0,0.7,44,0.00,,,0.00,WUHU216HW,2013-03-26 01:39:00,
2013-03-25 18:44:00,50.6,29.9,29.99,NNE,23,0.0,0.4,45,0.00,,,0.00,WUHU216HW,2013-03-26 01:44:00,
2013-03-25 18:49:00,50.4,29.8,29.99,NNE,23,0.0,0.0,45,0.00,,,0.00,WUHU216HW,2013-03-26 01:49:00,
2013-03-25 18:54:00,50.0,29.4,30.00,NNE,23,0.0,0.0,45,0.00,,,0.00,WUHU216HW,2013-03-26 01:54:00,
2013-03-25 19:02:00,50.0,29.4,29.99,NNE,23,0.0,0.0,45,0.00,,,0.00,WUHU216HW,2013-03-26 02:02:00,
2013-03-25 19:07:00,49.5,29.4,29.99,NNE,23,0.0,0.0,46,0.00,,,0.00,WUHU216HW,2013-03-26 02:07:00,
2013-03-25 19:12:00,49.1,29.7,29.99,NNE,23,0.0,0.0,47,0.00,,,0.00,WUHU216HW,2013-03-26 02:12:00,
2013-03-25 19:17:00,48.6,29.2,30.00,NNE,23,0.0,0.0,47,0.00,,,0.00,WUHU216HW,2013-03-26 02:17:00,
2013-03-25 19:22:00,48.2,28.8,29.99,NNE,23,0.0,0.0,47,0.00,,,0.00,WUHU216HW,2013-03-26 02:22:00,
2013-03-25 19:27:00,47.9,29.0,30.00,NNE,23,0.0,0.0,48,0.00,,,0.00,WUHU216HW,2013-03-26 02:27:00,
2013-03-25 19:32:00,47.3,29.1,29.99,NE,45,0.7,1.1,49,0.00,,,0.00,WUHU216HW,2013-03-26 02:32:00,
2013-03-25 19:34:00,47.2,28.9,29.99,NE,45,0.7,1.1,49,0.00,,,0.00,WUHU216HW,2013-03-26 02:34:00,
2013-03-25 19:37:00,47.2,28.9,29.99,NE,45,0.7,1.1,49,0.00,,,0.00,WUHU216HW,2013-03-26 02:37:00,
2013-03-25 19:42:00,47.2,28.9,29.99,NE,45,0.7,0.9,49,0.00,,,0.00,WUHU216HW,2013-03-26 02:42:00,
2013-03-25 20:00:00,45.2,28.5,29.99,ESE,113,0.0,0.0,52,0.00,,,0.00,WUHU216HW,2013-03-26 03:00:00,
2013-03-25 20:01:00,45.0,28.9,29.99,ESE,113,0.0,0.0,53,0.00,,,0.00,WUHU216HW,2013-03-26 03:01:00,
2013-03-25 20:05:00,44.8,28.7,29.99,ESE,113,0.0,0.0,53,0.00,,,0.00,WUHU216HW,2013-03-26 03:05:00,
2013-03-25 20:06:00,44.6,28.5,29.99,ESE,113,0.0,0.0,53,0.00,,,0.00,WUHU216HW,2013-03-26 03:06:00,
2013-03-25 20:15:00,43.9,28.3,29.99,ESE,113,0.0,0.2,54,0.00,,,0.00,WUHU216HW,2013-03-26 03:15:00,
2013-03-25 20:20:00,43.4,28.3,29.99,ESE,113,0.0,0.0,55,0.00,,,0.00,WUHU216HW,2013-03-26 03:20:00,
2013-03-25 20:25:00,42.8,27.7,29.99,ESE,113,0.7,0.7,55,0.00,,,0.00,WUHU216HW,2013-03-26 03:25:00,
2013-03-25 20:26:00,42.7,27.5,29.99,ESE,113,0.0,0.7,55,0.00,,,0.00,WUHU216HW,2013-03-26 03:26:00,
2013-03-25 20:30:00,42.5,27.4,29.99,ESE,113,0.0,0.7,55,0.00,,,0.00,WUHU216HW,2013-03-26 03:30:00,
2013-03-25 20:32:00,42.1,27.5,29.99,ESE,113,0.0,0.7,56,0.00,,,0.00,WUHU216HW,2013-03-26 03:32:00,
2013-03-25 20:35:00,42.1,27.5,29.99,ESE,113,0.0,0.7,56,0.00,,,0.00,WUHU216HW,2013-03-26 03:35:00,
2013-03-25 20:40:00,41.8,27.2,29.99,ESE,113,0.0,0.0,56,0.00,,,0.00,WUHU216HW,2013-03-26 03:40:00,
2013-03-25 20:45:00,41.4,27.3,29.99,ESE,113,0.0,0.0,57,0.00,,,0.00,WUHU216HW,2013-03-26 03:45:00,
2013-03-25 20:50:00,41.0,26.9,29.99,ESE,113,0.0,0.0,57,0.00,,,0.00,WUHU216HW,2013-03-26 03:50:00,
2013-03-25 20:55:00,40.5,26.8,29.99,ESE,113,0.0,0.0,58,0.00,,,0.00,WUHU216HW,2013-03-26 03:55:00,
2013-03-25 21:00:00,40.1,26.5,29.99,ESE,113,0.0,0.0,58,0.00,,,0.00,WUHU216HW,2013-03-26 04:00:00,
2013-03-25 21:01:00,40.0,26.3,29.99,ESE,113,0.0,0.0,58,0.00,,,0.00,WUHU216HW,2013-03-26 04:01:00,
2013-03-25 21:06:00,39.8,26.6,29.99,ESE,113,0.0,0.0,59,0.00,,,0.00,WUHU216HW,2013-03-26 04:06:00,
2013-03-25 21:11:00,39.4,26.2,29.99,ESE,113,0.0,0.0,59,0.00,,,0.00,WUHU216HW,2013-03-26 04:11:00,
2013-03-25 21:16:00,39.1,26.3,29.99,ESE,113,0.0,0.0,60,0.00,,,0.00,WUHU216HW,2013-03-26 04:16:00,
2013-03-25 21:21:00,38.7,26.0,30.00,ESE,113,0.0,0.0,60,0.00,,,0.00,WUHU216HW,2013-03-26 04:21:00,
2013-03-25 21:27:00,38.5,25.8,30.00,ESE,113,0.0,0.0,60,0.00,,,0.00,WUHU216HW,2013-03-26 04:27:00,
2013-03-25 21:32:00,38.2,25.8,30.00,ESE,113,0.0,0.0,61,0.00,,,0.00,WUHU216HW,2013-03-26 04:32:00,
2013-03-25 21:37:00,37.8,25.6,30.00,ESE,113,0.0,0.0,61,0.00,,,0.00,WUHU216HW,2013-03-26 04:37:00,
2013-03-25 21:42:00,37.6,25.4,30.00,ESE,113,0.0,0.9,61,0.00,,,0.00,WUHU216HW,2013-03-26 04:42:00,
2013-03-25 21:47:00,37.3,25.0,30.00,ESE,113,0.0,0.9,61,0.00,,,0.00,WUHU216HW,2013-03-26 04:47:00,
2013-03-25 21:52:00,37.1,25.3,30.00,ESE,113,0.0,0.0,62,0.00,,,0.00,WUHU216HW,2013-03-26 04:52:00,
2013-03-25 21:57:00,36.7,24.9,30.00,ESE,113,0.0,0.0,62,0.00,,,0.00,WUHU216HW,2013-03-26 04:57:00,
2013-03-25 22:02:00,36.4,24.6,30.00,ESE,113,0.0,0.0,62,0.00,,,0.00,WUHU216HW,2013-03-26 05:02:00,
2013-03-25 22:07:00,36.2,24.5,30.00,ESE,113,0.0,0.0,62,0.00,,,0.00,WUHU216HW,2013-03-26 05:07:00,
2013-03-25 22:12:00,36.0,24.3,30.00,SW,225,1.3,1.3,62,0.00,,,0.00,WUHU216HW,2013-03-26 05:12:00,
2013-03-25 22:17:00,35.6,24.3,30.00,SW,225,0.0,1.3,63,0.00,,,0.00,WUHU216HW,2013-03-26 05:17:00,
2013-03-25 22:22:00,35.5,24.1,30.00,SW,225,0.0,1.1,63,0.00,,,0.00,WUHU216HW,2013-03-26 05:22:00,
2013-03-25 22:27:00,35.1,24.1,30.00,SW,225,0.0,0.0,64,0.00,,,0.00,WUHU216HW,2013-03-26 05:27:00,
2013-03-25 22:32:00,34.9,23.9,30.00,SW,225,0.0,0.0,64,0.00,,,0.00,WUHU216HW,2013-03-26 05:32:00,
2013-03-25 22:37:00,34.7,24.1,30.00,SW,225,0.7,0.7,65,0.00,,,0.00,WUHU216HW,2013-03-26 05:37:00,
2013-03-25 22:42:00,34.6,23.9,30.00,SW,225,0.0,0.7,65,0.00,,,0.00,WUHU216HW,2013-03-26 05:42:00,
2013-03-25 22:47:00,34.4,23.8,30.00,SW,225,0.0,0.4,65,0.00,,,0.00,WUHU216HW,2013-03-26 05:47:00,
2013-03-25 22:52:00,34.2,23.9,30.00,SW,225,0.0,0.0,66,0.00,,,0.00,WUHU216HW,2013-03-26 05:52:00,
2013-03-25 22:57:00,34.0,23.8,30.00,SW,225,0.0,0.0,66,0.00,,,0.00,WUHU216HW,2013-03-26 05:57:00,
2013-03-25 23:02:00,33.7,23.4,30.00,SW,225,0.0,0.0,66,0.00,,,0.00,WUHU216HW,2013-03-26 06:02:00,
2013-03-25 23:07:00,33.5,23.6,30.00,SW,225,0.0,0.0,67,0.00,,,0.00,WUHU216HW,2013-03-26 06:07:00,
2013-03-25 23:12:00,33.5,23.6,30.00,SW,225,0.0,0.0,67,0.00,,,0.00,WUHU216HW,2013-03-26 06:12:00,
2013-03-25 23:17:00,33.3,23.5,30.00,SW,225,0.0,0.0,67,0.00,,,0.00,WUHU216HW,2013-03-26 06:17:00,
2013-03-25 23:22:00,33.1,23.3,30.00,SW,225,0.0,0.0,67,0.00,,,0.00,WUHU216HW,2013-03-26 06:22:00,
2013-03-25 23:27:00,32.8,23.0,30.00,SW,225,0.0,0.0,67,0.00,,,0.00,WUHU216HW,2013-03-26 06:27:00,
2013-03-25 23:32:00,32.8,23.3,30.00,SW,225,0.0,0.0,68,0.00,,,0.00,WUHU216HW,2013-03-26 06:32:00,
2013-03-25 23:37:00,32.8,23.3,30.00,SW,225,0.0,0.0,68,0.00,,,0.00,WUHU216HW,2013-03-26 06:37:00,
2013-03-25 23:42:00,32.6,23.1,30.00,SW,225,0.0,0.0,68,0.00,,,0.00,WUHU216HW,2013-03-26 06:42:00,
2013-03-25 23:47:00,32.4,23.4,29.99,SW,225,0.0,0.0,69,0.00,,,0.00,WUHU216HW,2013-03-26 06:47:00,
2013-03-25 23:52:00,32.2,23.2,29.99,SW,225,0.0,0.0,69,0.00,,,0.00,WUHU216HW,2013-03-26 06:52:00,
2013-03-25 23:57:00,32.0,23.0,29.99,SW,225,0.0,0.0,69,0.00,,,0.00,WUHU216HW,2013-03-26 06:57:00,